Location: Cuiabá
(15.6014°S, 56.0979°W)
Time: 20:26:11
(UTC-04:00)

Hubble Space Telescope - Pass Details

Date: 05 December 2022
Orbit: 529 x 532 km, 28.5° (Epoch: 26 January)

Event Time Altitude Azimuth Distance (km) Brightness Sun altitude
Rises 18:17:12 0° 260° (W) 2,671 6.3 -3.4°
Reaches altitude 10° 18:19:55 10° 242° (WSW) 1,783 5.4 -4.0°
Maximum altitude 18:23:01 20° 194° (SSW) 1,268 3.2 -4.7°
Drops below altitude 10° 18:26:07 10° 145° (SE) 1,788 3.3 -5.4°
Sets 18:28:51 0° 128° (SE) 2,681 4.1 -6.0°
